Location: Clatteringshaws Loch
(55.0508°N, 4.2860°W)
Time: 01:33:49
(UTC+01:00)

ALOS - Visible Passes

Search period start: 31 August 2015 00:00
Search period end: 10 September 2015 00:00
Orbit: 686 x 687 km, 97.9° (Epoch: 30 August)

Date Brightness Start Highest point End Pass type
(mag) Time Alt. Az. Time Alt. Az. Time Alt. Az.
31 Aug 2.5 21:21:41 10° S 21:26:22 72° WSW 21:31:05 10° NNW visible
31 Aug 5.0 23:02:42 10° WSW 23:04:48 12° W 23:06:42 10° WNW visible
01 Sep 3.7 22:00:10 10° SSW 22:04:29 36° W 22:08:49 10° NNW visible
02 Sep 2.3 21:00:04 10° SSE 21:04:44 78° ENE 21:09:28 10° NNW visible
02 Sep 4.7 22:39:32 10° SW 22:42:51 18° W 22:46:04 10° NW visible
03 Sep 3.0 21:38:09 10° S 21:42:45 53° W 21:47:21 10° NNW visible
04 Sep 2.5 20:38:37 10° SE 20:43:11 53° ENE 20:47:46 10° N visible
04 Sep 4.2 22:16:59 10° SSW 22:20:58 27° W 22:24:55 10° NW visible
05 Sep 2.4 21:16:23 10° SSE 21:21:04 79° WSW 21:25:47 10° NNW visible
05 Sep 5.0 22:56:58 10° WSW 22:59:25 14° W 23:01:42 10° NW visible
06 Sep 3.6 21:54:45 10° SSW 21:59:09 39° W 22:03:33 10° NNW visible
07 Sep 2.3 20:54:47 10° SSE 20:59:26 72° ENE 21:04:08 10° NNW visible
07 Sep 4.6 22:33:58 10° SW 22:37:28 20° W 22:40:53 10° NW visible
08 Sep 2.8 21:32:47 10° S 21:37:24 58° W 21:42:03 10° NNW visible
09 Sep 2.6 20:33:22 10° SE 20:37:52 49° ENE 20:42:24 10° N visible
09 Sep 4.1 22:11:29 10° SSW 22:15:36 29° W 22:19:40 10° NNW visible
